{"data":{"norad_id":60511,"epoch":"2026-05-25T05:26:05.941824Z","epoch_age_seconds":59463,"freshness":"FRESH","line1":"1 60511U 24149AV  26145.22645766  .00054975  00000+0  97588-3 0  9998","line2":"2 60511  97.3823 231.9130 0002340  33.7441 326.3959 15.50039129 98949","mean_motion":15.50039129,"eccentricity":0.000234,"inclination_deg":97.3823,"raan_deg":231.913,"arg_perigee_deg":33.7441,"mean_anomaly_deg":326.3959,"bstar":0.00097588,"rev_number":9894,"period_min":92.900880568674,"perigee_km":415.02174506946,"apogee_km":418.20168746867,"semimajor_km":6794.7487162691,"source":"CELESTRAK","updated_at":"2026-05-25T13:38:13.332789Z"}}